Vorticity
10 6 7 11 9 10 1 10 7 20 -12 27 -5 -9 3 23 -23 8 -10 8 7 4 3 2 3 6 9 9 6 5 6 6 6 8 7 8 9 8 7 2 0 12 9 4
11 9 11 5 13 9 10 13 -16 4 28 -23 11 7 8 -2 9 3 6 2 7 9 2 4 3 5 7 8 8 9 5 5 6 5 6 8 7 7 7 4 7 9 5 11
15 18 15 10 10 7 16 8 -14 3 26 41 18 -4 14 -2 -5 0 -3 10 8 7 3 5 2 4 5 6 11 6 6 6 8 7 5 6 6 4 3 6 10 6 12 -1
18 9 7 7 7 -8 14 4 -1 -3 -9 13 10 9 5 19 -10 -1 9 -0 9 6 4 4 4 2 6 6 6 9 5 7 6 5 10 6 8 5 6 5 8 2 9 3
15 14 14 10 18 23 -11 12 14 3 15 27 18 16 12 70 -9 -3 -4 1 18 8 5 3 4 3 5 6 7 9 8 4 6 5 4 8 7 5 6 6 6 3 6 6
14 12 7 11 6 -1 8 7 -2 3 6 18 -5 5 18 22 52 -3 5 15 5 9 6 3 3 5 4 4 7 5 8 10 5 6 3 4 4 6 8 10 6 5 7 6
13 11 11 11 12 16 -15 16 17 -2 19 18 11 -1 1 19 13 36 -8 -4 -0 -6 14 5 1 8 4 4 5 7 6 7 7 6 4 6 6 5 5 5 6 4 5 5
8 12 9 7 6 -2 5 -3 5 3 -5 -11 28 18 30 27 20 67 -7 -0 5 4 17 6 4 9 5 4 4 5 8 7 7 8 8 6 9 4 7 5 4 5 4 4
0 8 13 8 19 14 1 -2 5 7 -13 -0 1 31 -18 42 6 8 45 34 12 5 3 12 10 6 5 7 6 5 4 7 5 6 6 8 2 16 7 8 7 7 6 6
4 3 14 16 15 11 7 1 18 14 4 14 20 9 14 -18 0 25 27 42 20 17 2 1 -1 19 1 9 4 6 4 5 7 5 5 3 8 8 6 6 7 6 2 7
15 -12 6 0 4 12 13 10 4 1 23 6 11 7 13 18 13 -5 7 44 29 6 12 12 2 -1 9 5 -2 5 5 4 5 5 4 2 7 5 6 6 7 7 9 4
18 10 12 8 0 13 6 10 6 3 4 -1 -10 0 2 8 7 15 6 45 39 33 29 -5 16 8 6 15 13 2 4 10 6 8 5 6 4 8 2 2 4 5 6 9
6 7 12 9 6 -1 2 11 6 2 -4 -2 -3 6 1 -1 6 12 -2 22 27 30 -14 -5 7 8 -3 6 -10 10 9 -6 -8 3 7 6 3 4 4 4 5 6 8 6
26 5 9 2 2 -2 -1 5 7 8 5 3 -1 8 4 4 3 13 17 18 8 33 19 40 8 2 0 22 -6 -4 3 8 21 -10 -3 10 6 4 5 4 4 3 5 4
11 24 3 -2 15 13 5 -2 10 19 6 3 4 2 -3 4 -2 4 4 8 9 34 26 10 10 0 17 1 7 4 9 -4 0 11 -2 8 3 6 6 3 3 4 6 4
7 27 14 14 -2 6 1 0 -3 -2 15 17 5 3 10 18 1 3 -18 -2 -2 17 19 10 30 33 -3 7 -16 -5 18 2 16 15 -0 5 10 17 4 10 1 5 14 2
15 16 7 14 10 -2 -4 -3 5 3 5 6 16 10 6 15 4 5 7 2 -1 11 8 26 9 15 39 28 4 2 10 16 10 17 -1 -1 17 -2 12 9 13 9 -0 2
6 10 17 29 12 14 19 2 13 8 11 5 5 10 10 1 8 2 13 15 8 4 16 14 0 2 5 4 19 21 9 8 -17 7 20 0 9 21 0 3 -4 6 9 13
8 7 14 11 10 27 24 16 16 15 5 -7 -15 7 7 6 12 5 -0 3 5 4 9 -11 1 -3 8 2 -12 -3 -3 3 20 16 15 -4 -7 7 9 6 3 21 18 14
22 14 9 19 17 8 15 23 27 26 11 13 28 15 3 10 -0 3 7 6 4 9 -3 3 12 -8 18 18 6 8 9 1 -9 1 -7 22 49 -18 14 41 30 14 17 9
15 26 12 13 4 4 5 14 9 16 38 15 -0 22 3 4 -2 12 2 5 -1 7 8 11 -5 11 10 4 49 -5 39 4 1 -9 46 18 12 9 11 4 11 11 14 12
14 7 12 19 16 15 18 11 16 10 15 26 25 -7 30 12 11 9 11 4 10 22 15 5 -4 -4 1 11 15 18 -1 -17 38 17 45 29 -0 7 7 19 32 19 11 8
9 4 2 9 8 11 19 12 15 -8 5 23 12 28 19 1 23 5 16 7 0 7 -16 -14 2 9 15 14 4 6 32 -1 -20 18 -2 5 -3 2 27 6 -34 31 -2 1
10 10 7 8 9 11 8 8 9 8 12 8 20 13 8 19 34 19 37 7 25 5 -23 24 23 25 8 1 7 0 13 2 18 4 9 12 36 9 24 22 8 -4 11 19
7 9 16 21 19 12 15 15 18 14 12 2 4 13 22 19 14 13 15 31 20 17 25 1 -9 10 8 11 16 3 -3 7 14 10 5 14 2 12 7 7 8 4 1 3
12 12 13 14 13 13 15 15 15 9 4 9 13 10 5 10 13 7 8 11 14 21 23 25 9 7 8 9 13 14 5 21 18 12 16 18 11 12 4 1 -0 1 -2 2
Height
5830 5835 5839 5854 5852 5852 5858 5862 5864 5868 5867 5867 5870 5873 5875 5874 5878 5881 5886 5891 5893 5892 5895 5900 5903 5904 5904 5907 5909 5910 5909 5911 5913 5915 5915 5916 5918 5919 5922 5924 5924 5925 5926 5927
5827 5834 5843 5844 5848 5849 5854 5859 5862 5864 5864 5865 5865 5867 5872 5875 5877 5880 5883 5889 5892 5895 5896 5899 5902 5905 5905 5906 5909 5911 5912 5913 5915 5917 5918 5918 5919 5921 5924 5924 5927 5928 5930 5930
5826 5834 5835 5840 5843 5847 5852 5856 5859 5861 5861 5862 5862 5863 5865 5869 5873 5875 5881 5884 5891 5894 5895 5897 5900 5905 5906 5907 5910 5912 5912 5913 5917 5919 5920 5920 5920 5923 5925 5927 5928 5928 5931 5933
5824 5826 5830 5833 5841 5845 5848 5852 5853 5854 5857 5859 5860 5861 5860 5863 5868 5872 5877 5881 5890 5891 5892 5896 5900 5903 5907 5908 5911 5912 5914 5913 5917 5919 5921 5923 5924 5925 5926 5928 5930 5932 5932 5934
5819 5823 5829 5832 5840 5845 5848 5849 5853 5855 5856 5856 5857 5860 5860 5860 5862 5869 5874 5878 5886 5889 5891 5894 5898 5902 5906 5909 5912 5913 5915 5917 5917 5919 5921 5923 5925 5925 5928 5929 5930 5932 5932 5933
5819 5822 5825 5830 5831 5842 5844 5847 5850 5851 5852 5854 5854 5856 5858 5858 5861 5864 5868 5873 5880 5885 5887 5890 5896 5900 5904 5908 5910 5913 5915 5918 5918 5920 5922 5923 5925 5926 5927 5929 5930 5931 5933 5934
5820 5823 5825 5828 5833 5838 5841 5843 5847 5850 5852 5852 5852 5854 5854 5854 5855 5859 5863 5870 5875 5881 5884 5888 5894 5900 5902 5907 5909 5913 5915 5916 5918 5920 5922 5924 5925 5926 5927 5928 5931 5932 5933 5935
5820 5825 5826 5829 5833 5840 5842 5844 5846 5847 5849 5851 5850 5851 5852 5851 5853 5855 5860 5865 5870 5876 5882 5886 5890 5897 5900 5904 5907 5909 5914 5916 5918 5920 5922 5924 5925 5926 5927 5928 5929 5931 5932 5934
5820 5823 5826 5829 5833 5838 5840 5843 5843 5846 5847 5849 5851 5850 5851 5849 5851 5853 5857 5860 5865 5872 5880 5883 5888 5893 5899 5902 5904 5908 5910 5913 5916 5918 5920 5922 5924 5925 5926 5927 5929 5930 5932 5933
5820 5823 5825 5828 5830 5832 5835 5839 5841 5843 5846 5848 5849 5849 5851 5851 5853 5853 5852 5853 5859 5866 5873 5879 5884 5889 5892 5898 5902 5906 5908 5910 5914 5917 5918 5920 5922 5924 5924 5925 5927 5929 5931 5932
5818 5821 5825 5826 5828 5830 5832 5834 5837 5840 5844 5845 5848 5850 5849 5850 5851 5852 5850 5850 5854 5860 5870 5875 5880 5884 5887 5893 5898 5903 5905 5909 5912 5914 5917 5918 5919 5922 5924 5924 5925 5926 5928 5930
5818 5820 5822 5824 5827 5826 5826 5830 5834 5838 5841 5842 5847 5849 5848 5847 5848 5850 5848 5845 5848 5855 5864 5871 5875 5881 5884 5888 5893 5902 5903 5905 5909 5913 5915 5916 5917 5919 5921 5924 5925 5926 5927 5928
5815 5816 5818 5821 5823 5823 5824 5827 5831 5835 5837 5838 5843 5847 5847 5849 5846 5847 5847 5845 5846 5851 5857 5863 5868 5876 5882 5884 5889 5895 5899 5903 5906 5909 5912 5914 5914 5916 5917 5919 5922 5924 5924 5926
5811 5811 5812 5817 5819 5820 5822 5824 5828 5830 5833 5834 5838 5844 5844 5848 5849 5844 5843 5846 5847 5850 5854 5859 5864 5870 5877 5883 5886 5887 5893 5895 5899 5903 5907 5909 5911 5913 5915 5916 5918 5920 5923 5923
5808 5809 5809 5812 5815 5817 5819 5822 5824 5827 5828 5831 5833 5838 5841 5843 5847 5847 5846 5846 5848 5849 5850 5853 5858 5866 5872 5876 5882 5884 5886 5890 5894 5897 5901 5904 5906 5907 5910 5911 5911 5912 5916 5919
5804 5804 5805 5806 5809 5812 5815 5818 5821 5824 5826 5827 5827 5832 5836 5838 5843 5845 5846 5846 5846 5848 5851 5850 5853 5857 5864 5869 5876 5879 5880 5884 5887 5891 5893 5897 5899 5901 5903 5906 5906 5907 5908 5912
5798 5800 5801 5802 5804 5806 5810 5813 5816 5819 5821 5824 5824 5827 5832 5834 5838 5840 5842 5843 5845 5844 5844 5848 5850 5854 5859 5864 5868 5869 5873 5878 5882 5883 5886 5889 5891 5894 5897 5898 5899 5900 5902 5903
5795 5796 5798 5798 5799 5802 5805 5807 5810 5813 5815 5818 5819 5821 5825 5829 5833 5835 5836 5837 5839 5839 5839 5841 5847 5852 5856 5858 5861 5863 5867 5861 5872 5875 5878 5881 5882 5885 5887 5889 5892 5893 5895 5897
5790 5791 5792 5792 5794 5795 5796 5800 5804 5806 5810 5812 5814 5815 5817 5820 5826 5830 5831 5833 5834 5835 5836 5838 5844 5846 5849 5852 5856 5857 5860 5863 5863 5863 5868 5872 5874 5878 5879 5880 5882 5884 5886 5889
5784 5786 5787 5787 5788 5790 5793 5792 5794 5796 5801 5805 5805 5808 5811 5813 5816 5820 5823 5824 5828 5830 5832 5836 5838 5842 5843 5844 5840 5839 5850 5852 5854 5857 5861 5864 5864 5867 5868 5868 5871 5875 5877 5878
5780 5780 5781 5782 5783 5785 5787 5788 5788 5790 5797 5795 5798 5798 5802 5805 5808 5811 5817 5818 5820 5823 5826 5830 5832 5834 5836 5838 5836 5839 5836 5840 5845 5850 5853 5853 5855 5856 5856 5860 5863 5865 5866 5869
5778 5778 5778 5779 5779 5781 5781 5783 5784 5785 5786 5788 5790 5792 5794 5797 5800 5802 5807 5813 5813 5816 5819 5821 5824 5826 5827 5830 5832 5830 5833 5834 5837 5841 5837 5838 5840 5844 5847 5850 5853 5855 5859 5861
5774 5775 5775 5776 5776 5776 5776 5777 5778 5780 5780 5781 5783 5785 5788 5791 5792 5795 5797 5803 5805 5807 5810 5813 5815 5818 5821 5822 5824 5827 5829 5827 5828 5823 5833 5831 5835 5837 5838 5843 5845 5849 5852 5854
5769 5770 5771 5771 5771 5771 5771 5772 5773 5774 5775 5776 5777 5779 5781 5784 5786 5788 5791 5793 5793 5798 5799 5803 5807 5808 5810 5813 5816 5818 5820 5820 5821 5822 5824 5827 5830 5832 5834 5836 5838 5841 5844 5848
5765 5765 5765 5765 5765 5766 5767 5766 5767 5768 5770 5771 5772 5773 5774 5776 5779 5781 5783 5784 5786 5786 5789 5793 5795 5800 5802 5805 5807 5809 5809 5812 5815 5819 5819 5820 5822 5823 5826 5829 5832 5835 5837 5839
5761 5761 5761 5761 5761 5762 5763 5763 5764 5764 5764 5765 5766 5766 5768 5769 5771 5773 5774 5776 5777 5780 5781 5782 5786 5788 5791 5793 5796 5799 5801 5801 5804 5808 5812 5813 5814 5816 5819 5821 5824 5826 5828 5830